User: anonymous
Location: Unspecified
(0.0000°N, 0.0000°E)
Time: 18:00:40
(UTC+02:00)
Language:

Transit 2A - Orbit

View from above orbital plane
View from above orbital plane
View from above satellite
View from above satellite

Ground track
Ground track

The orbit data is extracted from the following two-line orbital elements,

1 00045U 60007A   14104.80779332  .00000503  00000-0  15499-3 0  1149
2 00045 066.6956 203.2404 0254334 158.6371 332.8564 14.32945327799417
Epoch (UTC): 14 April 2014 19:23:13
Eccentricity: 0.0254334
inclination: 66.6956°
perigee height: 600 km
apogee height: 964 km
right ascension of ascending node: 203.2404°
argument of perigee: 158.6371°
revolutions per day: 14.32945327
mean anomaly at epoch: 332.8564°
orbit number at epoch: 79941

The dashed part of the orbit path shows where the satellite is in the earth's shadow,  

DLR